Tracking 29892 objects as of 21-Nov-2024
HD Live streaming from Space Station
objects crossing your sky now

RADUGA 32

Track RADUGA 32 now!
RADUGA 32 is classified as:


NORAD ID: 23448
Int'l Code: 1994-087A
Perigee: 35,761.3 km
Apogee: 35,832.0 km
Inclination: 14.5 °
Period: 1,436.2 minutes
Semi major axis: 42167 km
RCS: 3.107 m2 (large)
Launch date: December 28, 1994
Source: Commonwealth of Independent States (former USSR) (CIS)
Launch site: TYURATAM MISSILE AND SPACE COMPLEX (TTMTR)
Your satellite tracking list
Your tracking list is empty




NASA's NSSDC Master Catalog

Two Line Element Set (TLE):
1 23448U 94087A   24325.09549684 -.00000098  00000-0  00000-0 0  9998
2 23448  14.4601 355.2742 0008377 235.1437 297.0524  1.00261419127123
Source of the keplerian elements: AFSPC